SP3VKM-10 Weather Reports


time (UTC)temp
F
wind
direction
speed
knots
gust
knots
rain 1hr
in
rain 24hr
in
rain mn
in
humidity
%
barometer
mb
20260503021110 64 0.0 0.0 0.00 0.00 0.00 47 1017.2
20260503015111 64 0.0 0.0 0.00 0.00 0.00 17 1017.3
20260503013111 62 0.0 0.0 0.00 0.00 0.00 99 1017.4
20260503005111 62 0.0 0.0 0.00 0.00 0.00 99 1017.7
20260503003112 63 0.0 0.0 0.00 0.00 0.00 99 1017.8
20260502235110 64 0.0 0.0 0.00 0.00 0.00 1 1018.1
20260502233110 64 0.0 0.0 0.00 0.00 0.00 1 1018.2
20260502231109 65 0.0 0.0 0.00 0.00 0.00 1 1018.4
20260502225111 65 0.0 0.0 0.00 0.00 0.00 1 1018.6
20260502223111 66 0.0 0.0 0.00 0.00 0.00 2 1018.7
20260502221111 66 0.0 0.0 0.00 0.00 0.00 1 1018.8
20260502215110 66 0.0 0.0 0.00 0.00 0.00 21 1018.8
20260502213111 67 0.0 0.0 0.00 0.00 0.00 38 1018.9
20260502205110 67 0.0 0.0 0.00 0.00 0.00 36 1019.1
20260502203110 68 0.0 0.0 0.00 0.00 0.00 36 1019.2
20260502201110 68 0.0 0.0 0.00 0.00 0.00 40 1019.2
20260502195111 68 0.0 0.0 0.00 0.00 0.00 37 1019.3
20260502191112 70 0.0 0.0 0.00 0.00 0.00 23 1019.2
20260502181111 73 0.0 0.0 0.00 0.00 0.00 10 1019.2
20260502163111 73 0.0 0.0 0.00 0.00 0.00 1 1019.8
20260502161120 73 0.0 0.0 0.00 0.00 0.00 1 1020.0
20260502151111 73 0.0 0.0 0.00 0.00 0.00 1 1020.9
20260502123110 74 0.0 0.0 0.00 0.00 0.00 1 1023.0
20260502115111 73 0.0 0.0 0.00 0.00 0.00 1 1023.4
20260502105111 73 0.0 0.0 0.00 0.00 0.00 1 1024.0
20260502103111 73 0.0 0.0 0.00 0.00 0.00 1 1024.1
20260502101110 74 0.0 0.0 0.00 0.00 0.00 1 1024.4
20260502091110 74 0.0 0.0 0.00 0.00 0.00 1 1024.9
20260502071111 75 0.0 0.0 0.00 0.00 0.00 17 1025.4
20260502063111 72 0.0 0.0 0.00 0.00 0.00 25 1025.5
20260502061110 70 0.0 0.0 0.00 0.00 0.00 21 1025.6
20260502053110 66 0.0 0.0 0.00 0.00 0.00 99 1025.6
20260502051111 64 0.0 0.0 0.00 0.00 0.00 99 1025.6
20260502045110 62 0.0 0.0 0.00 0.00 0.00 99 1025.6
20260502041111 61 0.0 0.0 0.00 0.00 0.00 99 1025.5
20260502035110 61 0.0 0.0 0.00 0.00 0.00 99 1025.4
20260502033111 61 0.0 0.0 0.00 0.00 0.00 99 1025.6
20260502031111 61 0.0 0.0 0.00 0.00 0.00 99 1025.6
20260502025110 61 0.0 0.0 0.00 0.00 0.00 99 1025.6